Погода в Терволовом

Россия / Санкт-Петербург и Ленинградская область     59°40′11″N   29°54′12″E
темп.,
°C
ветер,
м/с
пор.,
м/с
влажн.,
%
обл.,
%
осадки,
мм/ч
давл.,
гПа
погр.,
м
5 августа, чт
чт500:00+10зюз227023 0.0 101619
03:00+10юз227620 0.0 101731
06:00+10зюз227319 0.0 101730
09:00+16ююз115829 0.0 1017379
12:00+19юв224237 0.0 10171755
15:00+20с224126 0.0 10161960
18:00+17всв355347 0.0 1016459
21:00+14св246597 0.0 101675
6 августа, пт
пт600:00+10в12847 0.0 101712
03:00+10с008850 0.0 101710
06:00+10с118714 0.0 101711
09:00+16св46655 0.0 1016484
12:00+20всв58465 0.0 10161846
15:00+18в585376 0.0 10151301
18:00+18всв61055100 0.0 10141555
21:00+14всв61364100 0.0 10141038
7 августа, сб
сб700:00+12всв51182100 0.0 1013621
03:00+13всв51084100 0.0 1012849
06:00+13всв61287100 0.0 1011505
09:00+13всв61490100 0.4 1010645
12:00+14в61296100 3.1 1010684
15:00+15в51197100 3.3 1009737
18:00+15в41098100 1.1 1008535
21:00+15в3899100 2.2 1008405
8 августа, вс
вс800:00+15в2699100 0.4 1008339
03:00+15в1299100 0.5 1008106
06:00+15ю1299100 0.2 100868
09:00+17зюз238316 0.3 1009521
12:00+21с116149 0.0 10091183
15:00+18ссв238127 0.2 1010198
18:00+21с126759 0.3 1011809
21:00+16всв229741 0.6 101350
9 августа, пн
пн900:00+14в1198100 0.0 101316
03:00+13в239993 0.0 101465
06:00+13юв239941 0.0 101485
09:00+17вюв338525 0.0 1014370
12:00+21вюв3365100 0.0 1014945
15:00+24вюв3454100 0.0 10131407
18:00+22всв576793 0.0 1012543
21:00+16св3993100 1.6 1011315